Skip Page Navigation
NASA JPL Caltech
NASA Logo - Jet Propulsion Laboratory + View the NASA Portal
+ Center for Near-Earth Object Studies
JPL Home Earth Solar System Stars & Galaxies Technology
JPL Solar System Dynamics
BODIES ORBITS EPHEMERIDES TOOLS PHYSICAL DATA DISCOVERY FAQ SITE MAP
JPL Small-Body Database Browser
Search: [ help ]  
35189 (1994 AE)
Classification: Main-belt Asteroid          SPK-ID: 2035189
Ephemeris | Orbit Diagram | Orbital Elements | Mission Design | Physical Parameters | Discovery Circumstances ]

[ show orbit diagram ]
Orbital Elements at Epoch 2459000.5 (2020-May-31.0) TDB
Reference: JPL 20 (heliocentric ecliptic J2000)
 Element Value Uncertainty (1-sigma)   Units 
e .1897702614414054 3.8961e-08  
a 2.447557881164053 9.2297e-09 au
q 1.983084182162579 9.7456e-08 au
i 5.364901657422053 4.4941e-06 deg
node 124.0883351279997 4.8525e-05 deg
peri 275.2527237199574 5.0149e-05 deg
M 4.814774755659109 1.4431e-05 deg
tp 2458981.794412306082
(2020-May-12.29441231)
5.6013e-05 TDB
period 1398.614039399329
3.83
7.9112e-06
2.166e-08
d
yr
n .2573976735959345 1.456e-09 deg/d
Q 2.912031580165528 1.0981e-08 au
  Orbit Determination Parameters
   # obs. used (total)      1075  
   data-arc span      9460 days (25.90 yr)  
   first obs. used      1994-01-02  
   last obs. used      2019-11-27  
   planetary ephem.      DE431  
   SB-pert. ephem.      SB431-N16  
   condition code      0  
   norm. resid. RMS      .55606  
   source      ORB  
   producer      Otto Matic  
   solution date      2019-Dec-04 02:10:01  

Additional Information
 Earth MOID = .999558 au 
 Jupiter MOID = 2.51689 au 
 T_jup = 3.467 
[ show covariance matrix ]

Ephemeris | Orbit Diagram | Orbital Elements | Mission Design | Physical Parameters | Discovery Circumstances ]

Physical Parameter Table
Parameter Symbol Value Units Sigma Reference Notes
absolute magnitude H 14.9   n/a MPO395338  

35189 (1994 AE)          Discovered 1994-Jan-02 by Kobayashi, T. at Oizumi
Reference: 20020227/Numbers.arcLast Updated: 2004-04-19

Alternate Designations
 1994 AE = 2000 NR14 
Ephemeris | Orbit Diagram | Orbital Elements | Mission Design | Physical Parameters | Discovery Circumstances ]
ABOUT SSD CREDITS/AWARDS PRIVACY/COPYRIGHT GLOSSARY LINKS
FirstGov 2020-Oct-25 14:47 UT
(server date/time)  
NASA Home Page
Site Manager:   Ryan S. Park
Webmaster  Alan B. Chamberlin